Waarnemingen

Advertentie
Mijn weer
Leutkirch-Herlazhofen, Duitsland (10945): temperatuur & dauwpunt: 18.02.2017 16:00:00 - 24.02.2017 16:00:00 (CET)Leutkirch-Herlazhofen, Duitsland (10945): temperatuur 5cm & temperatuur -5cm: 18.02.2017 16:00:00 - 24.02.2017 16:00:00 (CET)Leutkirch-Herlazhofen, Duitsland (10945): temperatuur -20cm & temperatuur -100cm: 18.02.2017 16:00:00 - 24.02.2017 16:00:00 (CET)Leutkirch-Herlazhofen, Duitsland (10945): windsnelheid & windstoten: 18.02.2017 16:00:00 - 24.02.2017 16:00:00 (CET)Leutkirch-Herlazhofen, Duitsland (10945): windrichting: 18.02.2017 16:00:00 - 24.02.2017 16:00:00 (CET)Leutkirch-Herlazhofen, Duitsland (10945): luchtdruk: 18.02.2017 16:00:00 - 24.02.2017 16:00:00 (CET)Leutkirch-Herlazhofen, Duitsland (10945): zicht: 18.02.2017 16:00:00 - 24.02.2017 16:00:00 (CET)Leutkirch-Herlazhofen, Duitsland (10945): Zonneschijnduur: 18.02.2017 16:00:00 - 24.02.2017 16:00:00 (CET)Leutkirch-Herlazhofen, Duitsland (10945): neerslag: 18.02.2017 16:00:00 - 24.02.2017 16:00:00 (CET)
Datum & Tijd tt [°C] td [°C] tt 5cm [°C] tt -5cm [°C] tt -20cm [°C] tt -100cm [°C] ff [km/u] ff [kn] fx [km/u] fx [kn] dd ppp [hPa] vv [km] sd [min] rr [mm]
24.02.2017 16:00:00 0,6 0,2 -0,2 2,6 4,4 3,6 8 4 30 16 ZW 1016,5 27 0 0,6
24.02.2017 15:00:00 0,1 0,0 -0,2 4,0 4,3 3,6 18 10 35 19 NW 1016,1 1,6 0 2,0
24.02.2017 14:00:00 4,4 0,3 5,0 6,6 4,2 3,6 22 12 36 19 ZZW 1014,0 44 25 0,0
24.02.2017 13:00:00 4,1 1,2 5,5 5,7 4,1 3,6 21 11 37 20 ZZW 1014,2 35 27 0,0
24.02.2017 12:00:00 2,7 1,1 2,9 3,5 4,2 3,6 24 13 33 18 ZZW 1014,9 40 0 0,0
24.02.2017 11:00:00 2,9 0,9 3,1 3,0 4,3 3,6 21 12 30 16 ZZW 1014,7 57 0 0,0
24.02.2017 10:00:00 2,7 0,3 1,7 2,1 4,5 3,6 14 8 29 16 ZW 1014,4 62 0 0,0
24.02.2017 09:00:00 2,2 0,6 0,9 2,3 4,7 3,6 19 11 32 17 WZW 1013,8 50 0 2,7
24.02.2017 08:00:00 1,9 0,9 1,1 3,3 4,9 3,5 20 11 36 19 ZW 1013,0 10 0 0,5
24.02.2017 07:00:00 3,2 0,8 1,9 3,6 5,0 3,5 25 13 40 21 WZW 1011,5 8 0 0,0
24.02.2017 06:00:00 3,9 0,5 3,2 4,0 5,1 3,5 26 14 47 26 ZW 1010,6 70 0 0,0
24.02.2017 05:00:00 4,1 1,1 3,3 4,4 5,2 3,5 24 13 46 25 ZW 1009,6 70 0 0,0
24.02.2017 04:00:00 5,2 2,3 3,8 5,1 5,2 3,5 25 14 53 29 WZW 1008,0 58 0 0,0
24.02.2017 03:00:00 6,6 3,5 5,6 5,5 5,3 3,5 34 18 62 33 W 1006,3 70 0 0,0
24.02.2017 02:00:00 8,1 3,7 7,3 5,6 5,3 3,5 38 21 64 35 WZW 1004,7 70 0 0,0
24.02.2017 01:00:00 8,5 3,7 7,7 5,7 5,3 3,5 40 22 61 33 WZW 1004,2 70 0 0,0
24.02.2017 00:00:00 9,5 3,6 8,3 5,7 5,4 3,5 40 22 67 36 WZW 1003,9 68 0 0,0
23.02.2017 23:00:00 10,1 2,8 8,8 5,7 5,4 3,5 31 17 65 35 WZW 1003,4 48 0 0,0
23.02.2017 22:00:00 11,2 1,2 9,5 5,5 5,5 3,5 31 17 50 27 WZW 1002,4 66 0 0,0
23.02.2017 21:00:00 11,7 -0,9 9,7 5,6 5,6 3,4 23 12 46 25 WZW 1002,0 70 0 0,0
23.02.2017 20:00:00 12,8 -2,0 10,6 5,6 5,7 3,4 29 16 43 23 ZW 1001,5 70 0 0,0
23.02.2017 19:00:00 13,2 -3,4 10,3 6,0 5,8 3,4 30 16 59 32 ZW 1001,0 70 0 0,0
23.02.2017 18:00:00 14,5 -4,3 11,7 7,0 5,7 3,4 42 23 75 40 WZW 1000,2 70 36 0,0
23.02.2017 17:00:00 14,8 -1,1 12,8 8,1 5,6 3,4 30 16 48 26 ZW 1000,4 44 49 0,0
23.02.2017 16:00:00 14,6 -0,3 13,7 8,7 5,4 3,4 28 15 57 31 WZW 1001,4 35 42 0,0
23.02.2017 15:00:00 14,9 -1,1 14,1 9,3 5,1 3,4 35 19 56 31 WZW 1002,5 25 29 0,0
23.02.2017 14:00:00 14,9 0,0 14,7 10,1 4,7 3,4 31 17 44 24 WZW 1004,1 22 60 0,0
23.02.2017 13:00:00 14,1 2,6 16,3 9,7 4,3 3,4 24 13 35 19 ZW 1005,7 17 60 0,0
23.02.2017 12:00:00 12,6 2,3 14,9 8,1 4,1 3,4 20 11 34 18 WZW 1007,4 17 60 0,0
23.02.2017 11:00:00 11,2 0,9 12,2 6,3 3,9 3,3 22 12 35 19 ZW 1008,5 15 60 0,0
23.02.2017 10:00:00 10,6 0,2 10,9 5,0 3,9 3,3 23 13 36 20 ZW 1009,2 17 60 0,0
23.02.2017 09:00:00 7,6 1,3 7,4 3,3 4,0 3,3 18 10 26 14 ZZW 1010,7 32 60 0,0
23.02.2017 08:00:00 5,8 1,6 4,1 2,8 4,1 3,3 20 11 31 17 ZZW 1012,1 48 19 0,0
23.02.2017 07:00:00 4,9 2,3 3,3 2,8 4,2 3,3 22 12 33 18 ZZW 1013,0 39 0 0,0
23.02.2017 06:00:00 4,1 2,5 2,7 3,0 4,4 3,3 18 10 26 14 ZZW 1014,0 25 0 0,0
23.02.2017 05:00:00 4,1 2,4 2,8 3,2 4,5 3,3 15 8 19 11 ZZW 1014,2 30 0 0,0
23.02.2017 04:00:00 4,9 2,4 3,5 3,5 4,6 3,3 16 8 29 16 ZZW 1014,6 46 0 0,0
23.02.2017 03:00:00 4,9 2,5 3,2 3,9 4,7 3,3 19 10 34 18 ZZW 1015,2 43 0 0,0
23.02.2017 02:00:00 5,8 2,8 4,6 4,5 4,7 3,2 22 12 37 20 ZW 1015,0 51 0 0,0
23.02.2017 01:00:00 6,1 2,9 5,3 4,4 4,8 3,2 19 10 32 18 ZW 1015,6 52 0 0,0
23.02.2017 00:00:00 5,9 2,9 5,0 4,5 4,9 3,2 22 12 40 22 ZW 1015,9 52 0 0,0
22.02.2017 23:00:00 6,2 2,8 5,3 4,8 5,0 3,2 27 15 41 22 ZZW 1015,7 56 0 0,0
22.02.2017 22:00:00 6,4 2,9 5,6 4,8 5,1 3,2 24 13 41 22 ZW 1016,2 70 0 0,0
22.02.2017 21:00:00 6,4 3,2 5,5 4,9 5,2 3,2 24 13 35 19 ZW 1016,1 70 0 0,0
22.02.2017 20:00:00 6,4 3,2 5,3 5,0 5,3 3,2 21 11 35 19 ZW 1016,2 70 0 0,0
22.02.2017 19:00:00 6,7 3,4 5,2 5,5 5,4 3,2 21 11 30 16 ZW 1015,9 70 0 0,0
22.02.2017 18:00:00 7,5 3,6 6,2 6,3 5,4 3,2 16 9 41 22 ZW 1015,6 70 1 0,0
22.02.2017 17:00:00 7,9 3,7 6,8 7,0 5,3 3,2 26 14 45 24 ZW 1015,0 70 1 0,0
22.02.2017 16:00:00 8,7 4,1 8,4 7,5 5,2 3,2 27 15 43 23 WZW 1015,2 65 0 0,0
22.02.2017 15:00:00 8,9 4,4 9,0 7,7 5,1 3,2 24 13 44 24 WZW 1015,5 65 0 0,0
22.02.2017 14:00:00 8,8 4,2 9,0 7,7 5,0 3,1 26 14 44 24 WZW 1016,3 60 2 0,0
22.02.2017 13:00:00 8,3 4,2 8,9 7,3 4,9 3,1 30 16 49 26 WZW 1016,8 43 4 0,0
22.02.2017 12:00:00 8,0 4,8 8,1 6,8 4,8 3,1 32 17 50 27 WZW 1017,3 60 0 0,0
22.02.2017 11:00:00 7,9 5,9 8,2 6,4 4,7 3,1 31 17 51 27 WZW 1017,1 48 1 0,0
22.02.2017 10:00:00 7,6 5,9 7,5 6,1 4,7 3,1 24 13 39 21 ZW 1017,0 46 0 0,0
22.02.2017 09:00:00 7,2 6,0 6,8 5,9 4,7 3,1 20 11 34 18 ZW 1017,3 34 0 0,0
22.02.2017 08:00:00 7,1 6,0 6,4 5,7 4,7 3,1 19 10 32 18 ZW 1017,3 31 0 0,0
22.02.2017 07:00:00 7,3 6,1 6,6 5,8 4,6 3,1 20 11 37 20 WZW 1017,4 33 0 0,0
22.02.2017 06:00:00 7,5 6,3 6,7 5,9 4,6 3,1 22 12 36 20 ZW 1017,6 40 0 0,0
22.02.2017 05:00:00 7,7 6,7 6,6 5,9 4,6 3,1 28 15 39 21 ZW 1017,7 24 0 0,0
22.02.2017 04:00:00 7,5 6,5 6,8 5,9 4,6 3,1 25 13 41 22 ZW 1018,1 24 0 0,0
22.02.2017 03:00:00 7,5 6,7 6,8 6,0 4,5 3,1 19 10 29 16 ZW 1018,8 16 0 0,0
22.02.2017 02:00:00 7,7 6,9 7,0 6,0 4,5 3,1 21 11 32 18 ZW 1019,4 20 0 0,0
22.02.2017 01:00:00 7,7 6,9 7,0 6,0 4,4 3,1 21 11 34 18 ZW 1019,6 25 0 0,0
22.02.2017 00:00:00 7,8 6,9 7,0 6,0 4,4 3,0 24 13 36 20 WZW 1019,8 29 0 0,0
21.02.2017 23:00:00 7,8 6,9 7,1 6,0 4,3 3,0 24 13 39 21 WZW 1019,8 19 0 0,0
21.02.2017 22:00:00 7,8 7,1 7,0 5,9 4,3 3,0 20 11 32 18 ZW 1019,9 12 0 0,0
21.02.2017 21:00:00 7,7 7,0 7,0 5,9 4,2 3,0 22 12 32 17 ZW 1020,0 12 0 0,0
21.02.2017 20:00:00 7,8 7,1 6,8 5,9 4,1 3,0 21 11 32 17 ZW 1020,1 17 0 0,2
21.02.2017 19:00:00 7,8 7,0 6,9 5,9 4,1 3,0 21 12 37 20 ZW 1020,1 29 0 0,1
21.02.2017 18:00:00 7,8 7,1 6,9 5,9 4,0 3,0 26 14 39 21 ZW 1019,8 31 0 0,6
21.02.2017 17:00:00 7,6 6,9 6,8 5,9 3,9 3,0 22 12 36 19 ZW 1019,5 20 0 0,2
21.02.2017 16:00:00 7,6 6,9 7,0 5,8 3,8 3,0 25 13 38 21 ZW 1019,5 21 0 0,0
21.02.2017 15:00:00 7,1 6,5 6,7 5,7 3,6 3,0 23 13 38 20 ZW 1019,9 21 0 0,0
21.02.2017 14:00:00 6,8 6,2 6,6 5,6 3,5 3,0 26 14 38 21 ZW 1020,0 19 0 0,0
21.02.2017 13:00:00 6,5 5,9 6,3 5,4 3,4 3,0 26 14 42 23 ZW 1020,2 17 0 0,2
21.02.2017 12:00:00 6,2 5,7 5,9 4,8 3,3 3,0 25 14 39 21 ZW 1020,4 6 0 0,2
21.02.2017 11:00:00 5,9 5,3 5,4 4,5 3,2 3,0 24 13 40 21 ZW 1020,3 28 0 0,8
21.02.2017 10:00:00 5,5 5,1 4,8 4,2 3,2 3,0 23 12 39 21 ZW 1020,4 5 0 2,8
21.02.2017 09:00:00 5,4 4,5 4,5 3,9 3,2 3,0 22 12 34 19 ZZW 1020,4 6 0 0,7
21.02.2017 08:00:00 5,2 4,0 4,3 3,7 3,2 3,0 18 10 28 15 ZZW 1020,6 41 0 0,0
21.02.2017 07:00:00 5,1 3,9 4,1 3,7 3,1 3,0 19 10 31 17 ZW 1020,5 51 0 0,1
21.02.2017 06:00:00 4,9 3,7 4,2 3,6 3,1 3,0 21 12 35 19 ZZW 1020,7 70 0 0,0
21.02.2017 05:00:00 4,5 3,7 3,8 3,6 3,1 3,0 19 11 40 21 ZZW 1021,2 30 0 0,0
21.02.2017 04:00:00 4,6 4,0 3,8 3,7 3,1 3,0 27 14 38 20 ZZW 1021,5 11 0 0,4
21.02.2017 03:00:00 4,6 4,1 3,9 3,7 3,1 2,9 25 13 41 22 ZW 1022,0 3,2 0 0,3
21.02.2017 02:00:00 4,7 4,2 3,9 3,7 3,1 2,9 25 14 42 23 ZZW 1022,5 2,9 0 0,1
21.02.2017 01:00:00 5,0 4,4 4,2 3,6 3,1 2,9 31 17 46 25 ZW 1022,7 7 0 1,1
21.02.2017 00:00:00 4,6 4,0 3,7 3,5 3,1 2,9 20 11 30 16 ZZW 1022,8 3,5 0 1,0
20.02.2017 23:00:00 4,7 3,8 3,8 3,4 3,1 2,9 19 10 27 15 ZW 1023,1 6 0 0,5
20.02.2017 22:00:00 5,1 2,8 3,7 3,3 3,2 2,9 19 10 29 15 ZW 1022,9 12 0 0,0
20.02.2017 21:00:00 5,2 2,3 3,9 3,3 3,2 2,9 19 10 26 14 ZW 1022,8 14 0 0,0
20.02.2017 20:00:00 5,2 1,8 3,9 3,3 3,2 2,9 16 8 24 13 ZZW 1022,8 21 0 0,0
20.02.2017 19:00:00 5,5 1,4 4,0 3,8 3,2 2,9 16 9 23 12 ZW 1022,8 26 0 0,0
20.02.2017 18:00:00 5,7 1,5 4,3 4,4 3,2 2,9 14 7 22 12 ZW 1022,3 28 0 0,0
20.02.2017 17:00:00 6,5 1,6 5,6 5,1 3,1 2,9 14 8 32 17 WZW 1022,2 32 0 0,0
20.02.2017 16:00:00 6,9 1,0 6,6 5,7 2,9 2,9 24 13 37 20 WZW 1022,6 27 0 0,0
20.02.2017 15:00:00 7,2 0,7 7,8 5,8 2,6 2,9 25 13 40 22 WZW 1022,9 22 1 0,0
20.02.2017 14:00:00 6,8 0,7 7,3 6,0 2,4 2,9 24 13 38 21 WZW 1023,2 23 19 0,0
20.02.2017 13:00:00 6,3 0,6 7,4 5,3 2,2 2,9 24 13 40 22 ZW 1024,3 20 37 0,0
20.02.2017 12:00:00 5,4 1,0 5,8 4,2 2,0 2,9 25 14 41 22 WZW 1025,7 21 5 0,0
20.02.2017 11:00:00 4,6 0,7 4,6 3,1 1,9 2,9 20 11 29 16 ZW 1025,9 17 0 0,0
20.02.2017 10:00:00 4,3 1,0 4,1 2,5 1,9 2,9 15 8 28 15 ZW 1025,6 16 10 0,0
20.02.2017 09:00:00 3,9 0,7 3,4 1,9 1,9 2,9 20 11 29 16 ZW 1025,7 14 0 0,0
20.02.2017 08:00:00 3,7 0,7 2,7 1,6 1,9 2,9 16 9 24 13 ZW 1025,4 14 0 0,0
20.02.2017 07:00:00 3,2 0,7 2,1 1,5 1,9 2,9 9 5 14 7 ZW 1025,3 13 0 0,0
20.02.2017 06:00:00 3,4 0,7 2,4 1,6 1,9 2,9 11 6 23 12 ZW 1025,1 13 0 0,0
20.02.2017 05:00:00 3,3 0,6 2,3 1,5 1,9 2,8 14 8 21 11 ZZW 1025,1 14 0 0,0
20.02.2017 04:00:00 3,3 0,5 1,9 1,5 1,9 2,8 14 7 19 10 ZW 1025,0 13 0 0,0
20.02.2017 03:00:00 3,1 0,6 1,7 1,5 1,9 2,8 13 7 23 12 ZZW 1025,4 12 0 0,1
20.02.2017 02:00:00 3,5 0,4 2,2 1,5 1,9 2,8 13 7 23 12 ZZW 1025,7 14 0 0,0
20.02.2017 01:00:00 3,5 0,5 2,3 1,5 2,0 2,8 14 8 23 12 ZW 1026,1 13 0 0,0
20.02.2017 00:00:00 4,0 0,5 2,7 1,3 2,0 2,8 16 9 22 12 ZW 1025,7 15 0 0,0
19.02.2017 23:00:00 3,9 0,2 2,4 1,2 2,1 2,8 14 8 19 10 ZW 1025,4 17 0 0,0
19.02.2017 22:00:00 3,7 0,0 1,8 1,1 2,2 2,8 11 6 16 8 ZW 1024,9 19 0 0,0
19.02.2017 21:00:00 3,9 -0,2 1,7 1,3 2,3 2,8 12 6 18 10 ZW 1024,4 21 0 0,0
19.02.2017 20:00:00 2,8 -0,2 0,6 1,5 2,4 2,8 8 4 13 7 ZW 1024,8 19 0 0,0
19.02.2017 19:00:00 3,2 -0,3 -1,5 2,2 2,4 2,8 7 4 18 10 ZW 1024,6 21 0 0,0
19.02.2017 18:00:00 4,1 0,1 1,6 3,4 2,3 2,8 10 5 18 10 ZZW 1023,8 22 12 0,0
19.02.2017 17:00:00 5,5 0,7 4,5 4,0 2,1 2,8 9 5 29 16 W 1023,7 24 15 0,0
19.02.2017 16:00:00 5,8 0,0 5,7 4,6 1,8 2,8 25 13 36 19 WZW 1024,0 22 15 0,0
19.02.2017 15:00:00 6,4 0,0 6,6 4,8 1,5 2,8 27 15 42 23 WZW 1024,1 27 50 0,0
19.02.2017 14:00:00 7,2 0,0 9,3 4,0 1,4 2,8 24 13 38 21 WZW 1024,0 12 60 0,0
19.02.2017 13:00:00 6,1 -0,7 8,0 1,1 1,4 2,8 26 14 34 19 WZW 1024,8 11 60 0,0
19.02.2017 12:00:00 5,6 -2,0 6,7 0,3 1,4 2,8 16 9 28 15 ZW 1025,5 15 60 0,0
19.02.2017 11:00:00 3,7 -3,8 3,3 0,3 1,5 2,8 18 10 30 16 ZW 1026,2 17 60 0,0
19.02.2017 10:00:00 2,0 -2,7 1,6 0,3 1,5 2,7 11 6 17 9 ZZW 1026,8 24 60 0,0
19.02.2017 09:00:00 -0,2 -2,3 -0,6 0,3 1,6 2,7 8 4 12 6 Z 1027,2 24 60 0,0
19.02.2017 08:00:00 -3,1 -4,2 -4,2 0,3 1,6 2,7 9 5 11 6 Z 1027,8 28 17 0,0
19.02.2017 07:00:00 -4,3 -5,2 -7,3 0,4 1,7 2,7 2 1 8 4 ZW 1028,2 19 0 0,0
19.02.2017 06:00:00 -2,9 -3,5 -5,1 0,4 1,7 2,7 6 4 9 5 Z 1027,9 12 0 0,0
19.02.2017 05:00:00 -3,2 -3,5 -6,4 0,5 1,8 2,7 5 3 11 6 ZO 1028,4 6 0 0,0
19.02.2017 04:00:00 -3,5 -3,7 -7,0 0,6 1,9 2,7 3 2 6 4 ZZO 1028,5 7 0 0,0
19.02.2017 03:00:00 -4,2 -4,3 -7,2 0,6 2,0 2,7 3 2 5 3 ZO 1028,8 3,5 0 0,0
19.02.2017 02:00:00 -4,2 -4,5 -7,0 0,7 2,1 2,7 0 0 3 2 N 1028,7 3,1 0 0,0
19.02.2017 01:00:00 -3,4 -3,5 -6,3 0,7 2,2 2,7 3 1 4 2 ZO 1028,6 1,8 0 0,0
19.02.2017 00:00:00 -2,9 -2,9 -5,8 0,8 2,3 2,7 3 2 5 3 OZO 1028,6 1,5 0 0,0
18.02.2017 23:00:00 -2,6 -2,7 -5,9 0,9 2,5 2,7 2 1 5 3 W 1028,4 2,7 0 0,0
18.02.2017 22:00:00 -2,5 -2,6 -6,0 1,1 2,6 2,7 0 0 4 2 N 1028,4 4,1 0 0,0
18.02.2017 21:00:00 -1,9 -2,7 -4,6 1,3 2,8 2,7 0 0 8 5 N 1028,4 6 0 0,0
18.02.2017 20:00:00 -0,7 -1,2 -4,9 1,7 2,9 2,7 2 1 6 3 NO 1028,1 9 0 0,0
18.02.2017 19:00:00 0,7 -1,2 -3,2 2,7 3,0 2,7 3 1 13 7 O 1027,7 10 0 0,0
18.02.2017 18:00:00 3,5 0,0 -0,8 4,3 2,9 2,7 6 3 17 9 ONO 1026,6 18 41 0,0
18.02.2017 17:00:00 5,6 0,3 5,0 5,7 2,6 2,7 11 6 19 10 NO 1025,6 19 60 0,0
18.02.2017 16:00:00 6,3 -0,2 7,5 6,7 2,2 2,7 11 6 23 12 NO 1025,3 23 60 0,0

tt = temperatuur
td = dauwpunt
tt 5cm = temperatuur 5cm
tt -5cm = temperatuur -5cm
tt -20cm = temperatuur -20cm
tt -100cm = temperatuur -100cm
ff = windsnelheid
fx = windstoten
dd = windrichting
ppp = luchtdruk
vv = zicht
sd = Zonneschijnduur
rr = neerslag

Weerstations in de omgeving